STARLINK-36123 (67007 NORAD) Tracking and Keplerian Element Data

This shows tracking and keplerian element data for the satellite.

Feedback or suggestion? Click here.




ElementValue
Catalog67007
NameSTARLINK-36123
Epoch Orbit138
Epoch Day354.25003472
Epoch Year2025
RAAN301.9823
Inclination69.994
Eccentricity0.000389
Argument of Perigee271.7336
Mean Anonmoly300.1438
Mean Motion15.92065376
Decay Rate-0.01079025
L11 67007U 25293E 25354.25003472 -.01079025 34804-3 -32415-2 0 9998
L22 67007 69.9940 301.9823 0003890 271.7336 300.1438 15.92065376 1389



Live tracking and technical data element details for STARLINK-36123 (NORAD 67007). STARLINK-36123 can be tracked NOW for your location showing map with azimuth and elevation plus other details from your city location.







IsCatalogInMostPopularTable: catalog: 67007, numindb: 38
Update: records affected: 1



GetName: 67007 STARLINK-36123

Hit Count: updated at: Tue, 17 Feb 2026 11:03:23 GMT